Hourly Weather Kozuby

Today, 24 October, Saturday

Time Temperature Precipitation Wind Pressure Humidity
00:00 +13°C° 0.4 mm 4 mps 743 mmHg 89%
01:00 +13°C° 0.4 mm 4 mps 744 mmHg 92%
02:00 +13°C° 0.2 mm 4 mps 744 mmHg 92%
03:00 +13°C° 0.2 mm 4 mps 744 mmHg 93%
04:00 +13°C° 0.2 mm 3 mps 744 mmHg 93%
05:00 +13°C° 0 mm 3 mps 744 mmHg 94%
06:00 +12°C° 0 mm 3 mps 745 mmHg 95%
07:00 +13°C° 0 mm 2 mps 745 mmHg 96%
08:00 +13°C° 0 mm 3 mps 745 mmHg 91%
09:00 +14°C° 0 mm 3 mps 746 mmHg 86%
10:00 +15°C° 0 mm 4 mps 746 mmHg 81%
11:00 +15°C° 0 mm 4 mps 746 mmHg 78%
12:00 +17°C° 0 mm 4 mps 746 mmHg 75%
13:00 +17°C° 0 mm 4 mps 746 mmHg 71%
14:00 +17°C° 0 mm 3 mps 746 mmHg 72%
15:00 +16°C° 0 mm 3 mps 746 mmHg 74%
16:00 +16°C° 0 mm 2 mps 746 mmHg 75%
17:00 +15°C° 0 mm 2 mps 746 mmHg 77%
18:00 +14°C° 0 mm 2 mps 746 mmHg 80%
19:00 +13°C° 0 mm 1 mps 747 mmHg 83%
20:00 +13°C° 0 mm 2 mps 747 mmHg 84%
21:00 +12°C° 0 mm 2 mps 747 mmHg 86%
22:00 +12°C° 0 mm 2 mps 747 mmHg 87%
23:00 +12°C° 0 mm 2 mps 747 mmHg 88%

Tomorrow, 25 October, Sunday

Time Temperature Precipitation Wind Pressure Humidity
00:00 +11°C° 0 mm 1 mps 747 mmHg 89%
01:00 +11°C° 0 mm 1 mps 747 mmHg 89%
02:00 +11°C° 0 mm 1 mps 747 mmHg 90%
03:00 +10°C° 0 mm 1 mps 746 mmHg 90%
04:00 +9°C° 0 mm 2 mps 746 mmHg 90%
05:00 +9°C° 0 mm 2 mps 746 mmHg 91%
06:00 +9°C° 0 mm 2 mps 746 mmHg 92%
07:00 +9°C° 0 mm 3 mps 746 mmHg 92%
08:00 +10°C° 0 mm 3 mps 746 mmHg 86%
09:00 +12°C° 0 mm 3 mps 746 mmHg 80%
10:00 +14°C° 0 mm 3 mps 746 mmHg 73%
11:00 +15°C° 0 mm 4 mps 746 mmHg 70%
12:00 +17°C° 0 mm 4 mps 745 mmHg 67%
13:00 +18°C° 0 mm 4 mps 745 mmHg 63%
14:00 +17°C° 0 mm 4 mps 744 mmHg 67%
15:00 +16°C° 0 mm 3 mps 744 mmHg 71%
16:00 +16°C° 0 mm 3 mps 743 mmHg 75%
17:00 +14°C° 0 mm 3 mps 743 mmHg 79%
18:00 +13°C° 0 mm 3 mps 743 mmHg 82%
19:00 +12°C° 0 mm 3 mps 743 mmHg 85%
20:00 +12°C° 0 mm 4 mps 743 mmHg 86%
21:00 +11°C° 0 mm 4 mps 743 mmHg 87%
22:00 +11°C° 0 mm 4 mps 742 mmHg 87%
23:00 +10°C° 0 mm 3 mps 742 mmHg 89%

Day after tomorrow, 26 October, Monday

Time Temperature Precipitation Wind Pressure Humidity
00:00 +10°C° 0 mm 3 mps 742 mmHg 90%
01:00 +10°C° 0 mm 2 mps 742 mmHg 91%
02:00 +9°C° 0 mm 2 mps 741 mmHg 91%
03:00 +9°C° 0 mm 2 mps 741 mmHg 92%
04:00 +9°C° 0 mm 2 mps 741 mmHg 92%
05:00 +9°C° 0 mm 2 mps 741 mmHg 92%
06:00 +9°C° 0 mm 2 mps 741 mmHg 93%
07:00 +9°C° 0 mm 2 mps 740 mmHg 93%
08:00 +12°C° 0 mm 2 mps 740 mmHg 87%
09:00 +13°C° 0 mm 2 mps 740 mmHg 80%
10:00 +15°C° 0 mm 2 mps 740 mmHg 74%
11:00 +14°C° 0 mm 3 mps 740 mmHg 74%
12:00 +14°C° 0 mm 3 mps 740 mmHg 74%
13:00 +14°C° 0 mm 3 mps 740 mmHg 74%
14:00 +14°C° 0.1 mm 3 mps 740 mmHg 75%
15:00 +14°C° 0.1 mm 3 mps 739 mmHg 77%
16:00 +13°C° 0.1 mm 4 mps 739 mmHg 78%
17:00 +13°C° 0.1 mm 3 mps 740 mmHg 80%
18:00 +12°C° 0.1 mm 3 mps 740 mmHg 82%
19:00 +12°C° 0.1 mm 3 mps 740 mmHg 83%
20:00 +12°C° 0 mm 2 mps 740 mmHg 87%
21:00 +12°C° 0 mm 2 mps 741 mmHg 90%
22:00 +10°C° 0 mm 2 mps 741 mmHg 94%
23:00 +10°C° 0 mm 2 mps 741 mmHg 94%

, 27 October, Tuesday

Time Temperature Precipitation Wind Pressure Humidity
00:00 +9°C° 0 mm 2 mps 741 mmHg 95%
01:00 +10°C° 0 mm 1 mps 741 mmHg 96%
02:00 +10°C° 0 mm 1 mps 741 mmHg 95%
03:00 +10°C° 0 mm 1 mps 741 mmHg 95%
04:00 +9°C° 0 mm 0 mps 741 mmHg 94%
05:00 +10°C° 0.1 mm 1 mps 741 mmHg 94%
06:00 +10°C° 0.1 mm 1 mps 741 mmHg 93%
07:00 +9°C° 0.1 mm 2 mps 741 mmHg 93%
08:00 +10°C° 0.3 mm 2 mps 741 mmHg 93%
09:00 +10°C° 0.3 mm 2 mps 741 mmHg 93%
10:00 +10°C° 0.3 mm 2 mps 742 mmHg 93%
11:00 +11°C° 0.1 mm 1 mps 742 mmHg 92%
12:00 +11°C° 0.1 mm 1 mps 742 mmHg 92%
13:00 +11°C° 0.1 mm 1 mps 742 mmHg 91%
14:00 +11°C° 0.2 mm 1 mps 742 mmHg 92%
15:00 +11°C° 0.2 mm 1 mps 742 mmHg 93%
16:00 +9°C° 0.2 mm 2 mps 742 mmHg 94%
17:00 +9°C° 0.3 mm 2 mps 742 mmHg 94%
18:00 +9°C° 0.3 mm 2 mps 743 mmHg 94%
19:00 +9°C° 0.3 mm 2 mps 743 mmHg 94%
20:00 +9°C° 0 mm 2 mps 744 mmHg 94%
21:00 +9°C° 0 mm 2 mps 744 mmHg 95%
22:00 +10°C° 0 mm 1 mps 745 mmHg 95%
23:00 +8°C° 0 mm 2 mps 745 mmHg 95%

27 October, Tuesday

Time Temperature Precipitation Wind Pressure Humidity
00:00 +9°C° 0 mm 2 mps 741 mmHg 95%
01:00 +10°C° 0 mm 1 mps 741 mmHg 96%
02:00 +10°C° 0 mm 1 mps 741 mmHg 95%
03:00 +10°C° 0 mm 1 mps 741 mmHg 95%
04:00 +9°C° 0 mm 0 mps 741 mmHg 94%
05:00 +10°C° 0.1 mm 1 mps 741 mmHg 94%
06:00 +10°C° 0.1 mm 1 mps 741 mmHg 93%
07:00 +9°C° 0.1 mm 2 mps 741 mmHg 93%
08:00 +10°C° 0.3 mm 2 mps 741 mmHg 93%
09:00 +10°C° 0.3 mm 2 mps 741 mmHg 93%
10:00 +10°C° 0.3 mm 2 mps 742 mmHg 93%
11:00 +11°C° 0.1 mm 1 mps 742 mmHg 92%
12:00 +11°C° 0.1 mm 1 mps 742 mmHg 92%
13:00 +11°C° 0.1 mm 1 mps 742 mmHg 91%
14:00 +11°C° 0.2 mm 1 mps 742 mmHg 92%
15:00 +11°C° 0.2 mm 1 mps 742 mmHg 93%
16:00 +9°C° 0.2 mm 2 mps 742 mmHg 94%
17:00 +9°C° 0.3 mm 2 mps 742 mmHg 94%
18:00 +9°C° 0.3 mm 2 mps 743 mmHg 94%
19:00 +9°C° 0.3 mm 2 mps 743 mmHg 94%
20:00 +9°C° 0 mm 2 mps 744 mmHg 94%
21:00 +9°C° 0 mm 2 mps 744 mmHg 95%
22:00 +10°C° 0 mm 1 mps 745 mmHg 95%
23:00 +8°C° 0 mm 2 mps 745 mmHg 95%

28 October, Wednesday

Time Temperature Precipitation Wind Pressure Humidity
00:00 +8°C° 0 mm 2 mps 745 mmHg 95%
01:00 +7°C° 0 mm 2 mps 745 mmHg 94%
02:00 +7°C° 0 mm 2 mps 745 mmHg 94%
03:00 +7°C° 0 mm 2 mps 745 mmHg 93%
04:00 +7°C° 0 mm 2 mps 745 mmHg 92%
05:00 +6°C° 0 mm 2 mps 745 mmHg 91%
06:00 +6°C° 0 mm 2 mps 745 mmHg 90%
07:00 +5°C° 0 mm 3 mps 745 mmHg 89%
08:00 +8°C° 0 mm 3 mps 745 mmHg 83%
09:00 +8°C° 0 mm 4 mps 745 mmHg 78%
10:00 +11°C° 0 mm 4 mps 745 mmHg 72%
11:00 +11°C° 0 mm 4 mps 745 mmHg 68%
12:00 +12°C° 0 mm 4 mps 745 mmHg 64%
13:00 +13°C° 0 mm 4 mps 745 mmHg 60%
14:00 +13°C° 0 mm 4 mps 745 mmHg 62%
15:00 +12°C° 0 mm 3 mps 745 mmHg 65%
16:00 +12°C° 0 mm 3 mps 745 mmHg 67%
17:00 +11°C° 0 mm 3 mps 745 mmHg 69%
18:00 +10°C° 0 mm 3 mps 745 mmHg 71%
19:00 +10°C° 0 mm 3 mps 745 mmHg 73%
20:00 +9°C° 0 mm 3 mps 746 mmHg 75%
21:00 +9°C° 0 mm 3 mps 746 mmHg 77%
22:00 +9°C° 0 mm 3 mps 746 mmHg 79%
23:00 +8°C° 0 mm 3 mps 746 mmHg 80%

29 October, Thursday

Time Temperature Precipitation Wind Pressure Humidity
00:00 +8°C° 0 mm 3 mps 746 mmHg 80%
01:00 +8°C° 0 mm 3 mps 746 mmHg 81%
02:00 +9°C° 0 mm 3 mps 746 mmHg 79%
03:00 +8°C° 0 mm 4 mps 746 mmHg 78%
04:00 +8°C° 0 mm 4 mps 746 mmHg 76%
05:00 +10°C° 0 mm 4 mps 746 mmHg 75%
06:00 +10°C° 0 mm 4 mps 746 mmHg 74%
07:00 +9°C° 0 mm 5 mps 746 mmHg 73%
08:00 +10°C° 0 mm 5 mps 746 mmHg 70%
09:00 +11°C° 0 mm 6 mps 746 mmHg 68%
10:00 +13°C° 0 mm 6 mps 747 mmHg 65%
11:00 +14°C° 0 mm 6 mps 747 mmHg 62%
12:00 +14°C° 0 mm 6 mps 747 mmHg 60%
13:00 +14°C° 0 mm 6 mps 747 mmHg 57%
14:00 +14°C° 0 mm 5 mps 747 mmHg 61%
15:00 +13°C° 0 mm 5 mps 747 mmHg 65%
16:00 +12°C° 0 mm 4 mps 748 mmHg 69%
17:00 +11°C° 0 mm 3 mps 748 mmHg 72%
18:00 +10°C° 0 mm 3 mps 749 mmHg 75%
19:00 +10°C° 0 mm 3 mps 749 mmHg 78%
20:00 +9°C° 0 mm 3 mps 749 mmHg 78%
21:00 +9°C° 0 mm 3 mps 749 mmHg 78%
22:00 +9°C° 0 mm 3 mps 750 mmHg 78%
23:00 +9°C° 0 mm 3 mps 750 mmHg 80%
Show more